Home > Weather > Baltimore > Past weeks

Flag for U.S.A. Weather for the Past 2 Weeks in Baltimore, Maryland, U.S.A.

Now
29 °F

Passing clouds.


Feels Like: 29 °F
Forecast: 26 / 46 °F
Wind: No wind

Location: Baltimore-Washington International Airport

Current Time: Feb 7, 2016 at 1:49:34 AM

Latest Report: Feb 7, 2016 at 12:54 AM


Visibility: 10 mi

Pressure: 30.25 "Hg

Humidity: 79%

Dew point: 23 °F

Location of BaltimoreLocation

Historic Weather in Baltimore — Graph

°F

Baltimore Temperature Yesterday

Maximum temperature yesterday: 44 °F (at 2:54 PM)
Minimum temperature yesterday: 24 °F (at 2:54 AM)
Average temperature yesterday: 33 °F

High & Low Weather Summary for the Past Weeks

 TemperatureHumidityPressure
High61 °F (Jan 31, 2:54 PM)100% (Feb 1, 6:54 PM)30.46 "Hg (Feb 1, 6:54 PM)
Low9 °F (Jan 25, 6:54 AM)32% (Jan 31, 12:54 PM)29.54 "Hg (Jan 29, 4:54 AM)
Average36 °F70%30.03 "Hg
* Reported Jan 22 11:54 PM — Feb 6 11:54 PM, Baltimore, Weather by CustomWeather, © 2016

Note: Actual official high and low records may vary slightly from our data, if they occured in-between our weather recording intervals... More about our weather records

Advertising

Baltimore Weather History for the Previous 24 Hours

 ConditionsComfort  
Time TempWeatherWind HumidityBarometerVisibility
11:54 PM
Sat, Feb 6
29 °FPassing clouds.No wind79%30.26 "Hg10 mi
10:54 PM29 °FPassing clouds.No wind75%30.29 "Hg10 mi
9:54 PM33 °FPassing clouds.No wind66%30.31 "Hg10 mi
8:54 PM35 °FPassing clouds.3 mph59%30.31 "Hg10 mi
7:54 PM35 °FPassing clouds.3 mph59%30.31 "Hg10 mi
6:54 PM37 °FPassing clouds.5 mph57%30.30 "Hg10 mi
5:54 PM38 °FPassing clouds.No wind45%30.31 "Hg10 mi
4:54 PM42 °FScattered clouds.6 mph36%30.30 "Hg10 mi
3:54 PM43 °FPartly sunny.7 mph34%30.30 "Hg10 mi
2:54 PM44 °FPartly sunny.No wind35%30.31 "Hg10 mi
1:54 PM43 °FOvercast.8 mph35%30.33 "Hg10 mi
12:54 PM42 °FOvercast.8 mph39%30.37 "Hg10 mi
11:54 AM40 °FOvercast.8 mph43%30.42 "Hg10 mi
10:54 AM39 °FPartly sunny.5 mph46%30.45 "Hg10 mi
9:54 AM37 °FPartly sunny.6 mph52%30.46 "Hg10 mi
8:54 AM30 °FBroken clouds.No wind75%30.45 "Hg8 mi
7:54 AM24 °FBroken clouds.No wind84%30.45 "Hg8 mi
6:54 AM24 °FPartly cloudy.No wind84%30.44 "Hg9 mi
5:54 AM24 °FPassing clouds.No wind84%30.43 "Hg9 mi
4:54 AM24 °FPassing clouds.No wind84%30.41 "Hg10 mi
3:54 AM24 °FClear.No wind84%30.41 "Hg10 mi
2:54 AM24 °FPassing clouds.3 mph84%30.41 "Hg10 mi
1:54 AM27 °FPassing clouds.No wind75%30.41 "Hg10 mi
Weather by CustomWeather, © 2016

See weather overviewHow to use our weather pages